Location: Napier
(39.4830°S, 176.9170°E)
Time: 03:25:36
(UTC+12:00)

BREEZE-M DEB (TANK) - Pass Details

Date: 15 August 2020
Orbit: 310 x 16785 km, 49.5° (Epoch: 19 September)

Event Time Altitude Azimuth Distance (km) Brightness Sun altitude
Rises 18:29:14 0° 246° (WSW) 2,083 6.3 -11.1°
Reaches altitude 10° 18:30:58 10° 261° (W) 1,248 5.5 -11.5°
Maximum altitude 18:33:00 28° 326° (NW) 773 3.6 -11.9°
Drops below altitude 10° 18:36:17 10° 28° (NNE) 2,036 5.0 -12.5°
Sets 18:40:11 0° 38° (NE) 3,973 6.4 -13.2°
